Cloud_Cover
100 100 100 100 100 99 7 2 5 3 2 27 16 5 5 0 5 100 100 100 100 12 1 3 0 0 0 0 0 0 0 0 0 0 0 0 0 0 0 0 0 0 0 0 0 0 0 0 0
100 100 100 100 100 93 7 4 0 5 4 15 98 6 1 0 0 0 0 45 22 0 12 18 0 0 0 0 0 0 0 0 0 0 0 0 0 0 0 0 0 0 0 0 0 0 0 0 0
88 100 100 100 100 95 5 12 0 1 0 0 12 1 0 0 0 0 0 0 0 0 1 7 0 0 0 0 0 0 0 0 0 0 0 0 0 0 0 0 0 0 0 0 0 0 0 0 0
68 100 100 100 100 78 5 14 5 0 0 0 0 0 0 0 0 0 0 0 0 0 0 27 4 0 0 0 0 0 0 0 0 0 0 0 0 0 0 1 3 0 0 0 0 0 0 0 0
81 23 97 100 100 83 5 40 6 0 0 0 0 0 0 0 0 0 0 0 0 0 5 32 79 0 1 0 0 1 5 2 0 0 0 0 1 0 0 0 5 0 0 0 0 0 0 0 0
98 83 100 100 100 50 8 57 99 5 2 0 0 0 0 0 0 0 0 0 0 0 4 37 24 5 5 4 0 28 6 5 0 0 0 4 5 0 0 1 5 1 3 5 0 0 3 0 0
100 66 100 100 100 45 2 78 5 4 0 0 0 0 0 0 0 0 0 0 0 0 1 40 66 80 58 5 1 83 100 52 5 0 0 3 5 5 0 2 5 1 4 4 0 4 1 5 0
14 10 100 100 100 99 5 5 0 5 5 0 0 0 0 0 0 0 0 0 0 0 2 43 74 100 86 39 42 100 72 99 34 3 0 0 5 5 0 0 5 5 10 22 5 3 5 1 5
4 5 98 81 100 87 0 1 0 6 2 0 0 0 0 0 0 0 0 0 0 0 4 28 54 93 96 65 100 100 97 100 74 9 5 6 14 5 0 4 4 5 37 97 37 11 9 1 4
5 5 100 100 100 5 3 0 4 5 2 0 0 0 0 0 0 0 0 0 0 4 5 5 17 40 46 31 100 100 100 100 100 91 11 31 33 12 5 1 5 3 5 83 100 100 100 74 58
23 88 100 100 100 3 0 0 0 0 0 0 0 0 0 0 0 0 0 0 0 0 0 0 5 11 69 99 100 100 100 100 97 32 33 36 27 25 18 31 20 17 5 31 100 100 100 100 100
100 100 68 100 100 11 0 0 0 0 0 0 0 0 0 0 0 0 0 0 0 0 0 0 5 59 62 72 100 100 100 100 50 30 89 35 38 34 32 27 30 31 26 49 64 99 100 100 100
100 100 100 100 100 95 2 0 0 4 2 0 0 0 0 0 0 0 0 0 0 0 0 5 4 5 63 100 100 100 100 98 98 42 96 28 22 25 36 30 42 30 28 76 66 98 100 100 100
100 100 100 100 100 100 74 4 5 68 5 0 0 0 0 0 0 0 0 0 0 0 0 0 0 0 2 57 100 100 100 100 100 95 90 100 40 19 99 64 71 65 20 69 100 100 100 100 98
100 99 100 100 100 100 100 93 5 41 5 6 0 0 0 0 0 0 0 0 0 2 3 0 2 0 4 8 99 100 100 100 100 100 100 97 17 48 48 90 95 90 30 49 100 100 100 100 100
100 100 66 100 100 100 100 88 100 100 100 23 13 0 0 0 0 0 0 0 0 0 5 2 5 3 5 51 100 100 100 100 100 100 100 54 40 13 100 100 100 100 86 52 86 96 100 100 100
82 100 100 100 100 100 100 95 100 100 100 100 60 4 0 0 0 0 0 0 0 0 0 1 3 5 5 69 100 100 100 100 100 100 100 97 28 55 100 100 100 33 100 100 92 100 100 100 100
100 100 100 99 100 100 100 100 100 100 100 100 100 40 5 2 0 0 0 0 0 0 0 0 1 0 5 23 98 100 100 100 100 100 100 89 93 87 100 100 100 99 32 33 98 84 100 100 100
100 100 100 100 100 100 100 37 100 100 100 97 100 100 88 9 92 4 0 0 0 0 0 0 0 3 3 63 78 100 100 100 100 64 100 100 100 100 100 88 99 45 95 100 75 72 100 100 100
98 98 6 94 100 100 100 95 100 100 100 83 79 93 100 100 100 98 5 0 0 0 0 0 0 4 77 70 5 22 100 100 100 100 100 100 100 100 100 100 100 100 100 73 98 80 100 100 100
6 100 90 100 100 100 100 100 100 100 100 89 88 92 100 100 100 100 83 90 23 4 5 0 0 5 5 28 70 29 82 100 100 100 100 100 100 100 100 100 100 100 100 94 100 100 100 100 100
5 80 100 100 100 86 100 45 100 89 81 100 100 57 41 100 100 100 82 10 34 5 96 99 100 86 76 98 100 82 66 100 100 100 100 100 100 100 100 100 100 100 100 100 100 100 100 100 100
9 100 100 100 100 100 100 78 0 45 40 51 100 100 100 100 100 100 100 25 59 10 12 100 100 100 98 100 34 76 36 92 93 66 100 100 100 100 100 100 100 100 100 100 100 100 100 100 100
92 100 100 100 100 100 19 100 0 21 84 93 100 89 90 100 100 100 100 100 38 5 5 10 100 100 100 100 100 100 86 36 79 100 100 100 100 100 100 100 100 100 100 100 100 100 100 100 100
100 100 100 100 98 100 100 100 13 40 44 100 100 100 100 100 100 100 100 100 100 91 45 13 80 100 100 99 90 25 5 23 100 100 100 100 100 100 100 100 100 100 100 100 100 100 100 100 100
100 100 100 100 100 43 100 100 100 100 100 100 100 100 100 100 100 96 41 64 58 99 28 99 100 100 100 100 100 21 45 86 100 100 98 100 100 100 100 100 100 100 100 100 100 100 100 100 100
100 100 100 100 100 100 35 17 35 100 100 100 100 100 100 100 100 100 100 100 100 100 58 15 84 100 100 100 83 100 100 100 97 100 100 100 100 100 100 100 100 100 100 100 100 100 100 100 100
92 100 100 100 100 100 48 2 0 69 100 100 100 100 100 100 100 100 100 100 100 100 100 100 100 100 100 100 100 100 86 91 74 98 100 100 100 100 100 100 100 100 100 100 100 100 100 100 100
100 100 100 100 100 98 46 7 0 0 10 98 100 100 100 100 100 100 100 100 100 100 100 100 100 100 100 100 100 100 100 100 100 100 100 100 97 99 100 100 100 100 100 100 100 99 100 98 100
100 100 100 100 100 100 97 17 2 0 2 5 1 21 100 100 100 100 100 100 100 100 100 100 100 100 100 100 100 100 100 100 100 100 100 100 100 100 100 100 100 100 100 100 99 100 100 99 100